M I D A S
Marine Information and Data Acquisition System
Tripno 1243 of the Zeeleeuw from 2007-03-30 07:34:46 to 2007-03-30 14:13:55
Back to CruiseResearch ActivitiesStationsMapUnderway DataData graphs

EquipmentUnitsComments
TimeDGPSUTC
LatitudeDGPSDM.mWGS84
LongitudeDGPSDM.mWGS84
SpeedMeteo Stationm/sRelative wind speed
DirectionMeteo StationdegRelative wind direction
TemperatureMeteo Stationdeg CelciusAir temperature
PressureMeteo StationPaAtmospheric pressure
HumidityMeteo Station%Relative humidity
Missing or incorrect values are displayed as -999
Metereological data collected by the RV Zeeleeuw from 2007-03-30 07:35:03 to 2007-03-30 14:25:15
Time Latitude Longitude Speed Direction Temperature Pressure Humidity
2007-03-30 07:36 51°13.616 2°56.037 1.5 278 7 100980 100
2007-03-30 07:37 51°13.643 2°55.946 2.9 286 7 100980 100
2007-03-30 07:38 51°13.674 2°55.877 3.1 280 7 100980 100
2007-03-30 07:39 51°13.683 2°55.86 4.2 285 7 100970 100
2007-03-30 07:40 51°13.705 2°55.81 1.6 279 7 100980 100
2007-03-30 07:41 51°13.732 2°55.734 1.7 284 7 100980 100
2007-03-30 07:42 51°13.744 2°55.7 2.5 284 7 100980 100
2007-03-30 07:43 51°13.743 2°55.683 1.2 281 7 100980 100
2007-03-30 07:44 51°13.748 2°55.683 2.2 353 7 100980 100
2007-03-30 07:45 51°13.785 2°55.679 1.5 1 7 100980 100
2007-03-30 07:46 51°13.864 2°55.614 4.6 356 7.1 100980 100
2007-03-30 07:47 51°13.986 2°55.519 4.6 350 7 100980 100
2007-03-30 07:48 51°14.134 2°55.409 5.7 350 7 100980 100
2007-03-30 07:49 51°14.264 2°55.256 4.1 357 7 100980 100
2007-03-30 07:50 51°14.378 2°55.029 4.6 354 7 100970 100
2007-03-30 07:51 51°14.474 2°54.718 3.8 347 7.1 100980 100
2007-03-30 07:52 51°14.586 2°54.407 6.5 353 7.1 100980 100
2007-03-30 07:53 51°14.772 2°54.215 8.1 352 7.2 100970 100
2007-03-30 07:54 51°14.969 2°54.053 8.4 353 7.2 100960 100
2007-03-30 07:55 51°15.168 2°53.892 8.5 356 7.2 100960 100
2007-03-30 07:56 51°15.366 2°53.732 8.1 355 7.3 100970 100
2007-03-30 07:57 51°15.568 2°53.564 8.8 352 7.3 100970 100
2007-03-30 07:58 51°15.769 2°53.406 9.2 354 7.4 100960 100
2007-03-30 07:59 51°15.968 2°53.246 9.3 354 7.4 100960 100
2007-03-30 08:00 51°16.167 2°53.092 9.7 355 7.5 100960 100
2007-03-30 08:01 51°16.366 2°52.94 9.6 355 7.5 100960 100
2007-03-30 08:02 51°16.566 2°52.792 9.5 355 7.5 100960 100
2007-03-30 08:03 51°16.766 2°52.653 9.4 356 7.5 100960 100
2007-03-30 08:04 51°16.966 2°52.513 9.6 358 7.5 100970 100
2007-03-30 08:05 51°17.164 2°52.372 9.9 356 7.5 100970 100
2007-03-30 08:06 51°17.364 2°52.229 9.8 355 7.5 100960 100
2007-03-30 08:07 51°17.562 2°52.087 9.3 356 7.6 100970 100
2007-03-30 08:08 51°17.752 2°51.916 9.8 353 7.6 100970 100
2007-03-30 08:09 51°17.935 2°51.725 9.1 359 7.6 100960 100
2007-03-30 08:10 51°18.103 2°51.488 8.9 356 7.6 100970 100
2007-03-30 08:11 51°18.272 2°51.249 9.2 358 7.6 100970 100
2007-03-30 08:12 51°18.441 2°51.008 8.7 357 7.6 100970 100
2007-03-30 08:13 51°18.611 2°50.769 8.9 354 7.6 100970 100
2007-03-30 08:14 51°18.76 2°50.569 7.2 2 7.6 100970 100
2007-03-30 08:15 51°18.823 2°50.36 4.2 23 7.5 100980 100
2007-03-30 08:16 51°18.852 2°50.113 4.4 20 7.5 100980 100
2007-03-30 08:17 51°18.878 2°49.908 3.1 77 7.5 100980 100
2007-03-30 08:18 51°18.853 2°49.797 5.3 75 7.7 100990 100
2007-03-30 08:19 51°18.842 2°49.777 8 77 7.6 100990 100
2007-03-30 08:20 51°18.828 2°49.766 7.6 42 7.6 100980 100
2007-03-30 08:21 51°18.816 2°49.747 6.4 35 7.6 100980 100
2007-03-30 08:22 51°18.806 2°49.724 7.2 32 7.6 100990 100
2007-03-30 08:23 51°18.796 2°49.699 7.3 31 7.6 100990 100
2007-03-30 08:24 51°18.79 2°49.675 7.4 25 7.6 100990 100
2007-03-30 08:25 51°18.783 2°49.651 7 24 7.5 100980 100
2007-03-30 08:26 51°18.78 2°49.627 7.5 18 7.5 100990 100
2007-03-30 08:27 51°18.811 2°49.631 7.9 280 7.5 100980 100
2007-03-30 08:28 51°18.883 2°49.768 11.9 282 7.5 100980 100
2007-03-30 08:29 51°19.007 2°50.004 12.8 287 7.5 100960 100
2007-03-30 08:30 51°19.143 2°50.261 13.4 278 7.5 100970 100
2007-03-30 08:31 51°19.281 2°50.519 13.7 283 7.5 100960 100
2007-03-30 08:32 51°19.409 2°50.757 11.1 285 7.6 100970 100
2007-03-30 08:33 51°19.475 2°50.891 9.7 280 7.5 100970 100
2007-03-30 08:34 51°19.506 2°50.971 8 286 7.5 100980 100
2007-03-30 08:35 51°19.515 2°51.041 7.6 280 7.5 100980 100
2007-03-30 08:36 51°19.529 2°51.127 8.6 281 7.6 100980 100
2007-03-30 08:37 51°19.556 2°51.224 9.7 284 7.5 100980 100
2007-03-30 08:38 51°19.587 2°51.305 8.1 284 7.5 100980 100
2007-03-30 08:39 51°19.623 2°51.373 7.8 283 7.6 100990 100
2007-03-30 08:40 51°19.657 2°51.441 8.8 284 7.6 100980 100
2007-03-30 08:41 51°19.688 2°51.513 7.8 279 7.5 100990 100
2007-03-30 08:42 51°19.719 2°51.583 8 279 7.5 100980 100
2007-03-30 08:43 51°19.759 2°51.643 9.1 344 7.5 100990 100
2007-03-30 08:44 51°19.801 2°51.698 9.1 282 7.5 100990 100
2007-03-30 08:45 51°19.833 2°51.766 7.7 280 7.5 100990 100
2007-03-30 08:46 51°19.865 2°51.839 8.9 281 7.5 100990 100
2007-03-30 08:47 51°19.9 2°51.908 8.6 344 7.5 100990 100
2007-03-30 08:48 51°19.938 2°51.973 9 285 7.5 100990 100
2007-03-30 08:49 51°19.973 2°52.043 9.2 286 7.5 100990 100
2007-03-30 08:50 51°20.004 2°52.118 8.1 282 7.5 100990 100
2007-03-30 08:51 51°20.032 2°52.195 8.3 282 7.5 100990 100
2007-03-30 08:52 51°20.063 2°52.27 7.9 284 7.5 101000 100
2007-03-30 08:53 51°20.095 2°52.344 8.5 281 7.4 100990 100
2007-03-30 08:54 51°20.129 2°52.417 7.9 281 7.4 100990 100
2007-03-30 08:55 51°20.163 2°52.49 7.6 285 7.5 100990 100
2007-03-30 08:56 51°20.198 2°52.562 8.8 283 7.5 100990 100
2007-03-30 08:57 51°20.232 2°52.634 9 282 7.5 100990 100
2007-03-30 08:58 51°20.262 2°52.71 9.3 283 7.4 101000 100
2007-03-30 08:59 51°20.297 2°52.78 7.4 280 7.4 100990 100
2007-03-30 09:00 51°20.332 2°52.853 8.7 284 7.4 100990 100
2007-03-30 09:01 51°20.356 2°52.937 8.9 279 7.4 101000 100
2007-03-30 09:02 51°20.379 2°53.023 8.5 284 7.4 100990 100
2007-03-30 09:03 51°20.41 2°53.103 8.9 279 7.4 100990 100
2007-03-30 09:04 51°20.444 2°53.179 9 282 7.5 101000 100
2007-03-30 09:05 51°20.479 2°53.255 8.6 280 7.4 100990 100
2007-03-30 09:06 51°20.518 2°53.324 9.3 287 7.4 100990 100
2007-03-30 09:07 51°20.56 2°53.39 9.2 283 7.4 101000 100
2007-03-30 09:08 51°20.596 2°53.463 9.1 281 7.4 101000 100
2007-03-30 09:09 51°20.628 2°53.542 9.3 280 7.4 101000 100
2007-03-30 09:10 51°20.661 2°53.624 8.8 279 7.4 101000 100
2007-03-30 09:11 51°20.691 2°53.711 8.5 282 7.4 100990 100
2007-03-30 09:12 51°20.712 2°53.804 9.2 284 7.4 101000 100
2007-03-30 09:13 51°20.727 2°53.898 8.5 285 7.4 101000 100
2007-03-30 09:14 51°20.717 2°53.991 8.7 282 7.4 101000 100
2007-03-30 09:15 51°20.679 2°54.063 8 285 7.4 100990 100
2007-03-30 09:16 51°20.636 2°54.103 6.2 285 7.4 101000 100
2007-03-30 09:17 51°20.603 2°54.126 7 281 7.5 101000 100
2007-03-30 09:18 51°20.577 2°54.144 7.2 278 7.4 101000 100
2007-03-30 09:19 51°20.538 2°54.173 6.6 285 7.4 101000 100
2007-03-30 09:20 51°20.507 2°54.201 7.1 282 7.5 101000 100
2007-03-30 09:21 51°20.486 2°54.225 7.4 284 7.5 101000 100
2007-03-30 09:22 51°20.473 2°54.242 6.9 280 7.5 101000 100
2007-03-30 09:23 51°20.465 2°54.256 6.2 282 7.5 101000 100
2007-03-30 09:24 51°20.436 2°54.305 7.8 282 7.5 101000 100
2007-03-30 09:25 51°20.405 2°54.371 7.7 281 7.5 101000 100
2007-03-30 09:26 51°20.386 2°54.42 7.8 284 7.4 101000 100
2007-03-30 09:27 51°20.373 2°54.456 6.7 281 7.4 101000 100
2007-03-30 09:28 51°20.362 2°54.488 6.6 286 7.5 101000 100
2007-03-30 09:29 51°20.315 2°54.557 6.8 279 7.5 100990 100
2007-03-30 09:30 51°20.202 2°54.545 2.8 283 7.5 101010 100
2007-03-30 09:31 51°20.09 2°54.404 2.9 285 7.5 101010 100
2007-03-30 09:32 51°19.975 2°54.264 1.8 282 7.5 101010 100
2007-03-30 09:33 51°19.838 2°54.084 3.2 283 7.5 101010 100
2007-03-30 09:34 51°19.692 2°53.892 2.6 283 7.5 101010 100
2007-03-30 09:35 51°19.544 2°53.697 3.6 286 7.5 101010 100
2007-03-30 09:36 51°19.386 2°53.485 3.9 285 7.6 101010 100
2007-03-30 09:37 51°19.226 2°53.269 3 281 7.6 101010 100
2007-03-30 09:38 51°19.068 2°53.055 3.2 278 7.6 101010 100
2007-03-30 09:39 51°18.909 2°52.843 3.1 284 7.6 101000 100
2007-03-30 09:40 51°18.716 2°52.754 4.6 284 7.6 100990 100
2007-03-30 09:41 51°18.548 2°52.566 1.5 287 7.6 101000 100
2007-03-30 09:42 51°18.407 2°52.337 2.2 285 7.7 101000 100
2007-03-30 09:43 51°18.259 2°52.101 1.2 281 7.7 101000 100
2007-03-30 09:44 51°18.111 2°51.871 2.6 281 7.7 101000 100
2007-03-30 09:45 51°17.962 2°51.64 2.1 281 7.7 101010 100
2007-03-30 09:46 51°17.812 2°51.414 1.8 280 7.8 101000 100
2007-03-30 09:47 51°17.662 2°51.188 2.3 280 7.8 101010 100
2007-03-30 09:48 51°17.514 2°50.959 2.1 279 7.8 101010 100
2007-03-30 09:49 51°17.366 2°50.733 2.3 285 7.8 101010 100
2007-03-30 09:50 51°17.219 2°50.516 2.1 282 7.7 101010 100
2007-03-30 09:51 51°17.072 2°50.294 2.5 285 7.7 101020 100
2007-03-30 09:52 51°16.919 2°50.081 2.5 77 7.7 101020 100
2007-03-30 09:53 51°16.767 2°49.871 3.3 282 7.7 100990 100
2007-03-30 09:54 51°16.614 2°49.663 3.2 280 7.7 100990 100
2007-03-30 09:55 51°16.462 2°49.456 2.6 280 7.7 100990 100
2007-03-30 09:56 51°16.312 2°49.256 3.4 284 7.7 100990 100
2007-03-30 09:57 51°16.158 2°49.047 2.9 283 7.7 100990 100
2007-03-30 09:58 51°16.007 2°48.841 2.9 281 7.8 100990 100
2007-03-30 09:59 51°15.857 2°48.64 2.7 280 7.7 100990 100
2007-03-30 10:00 51°15.704 2°48.43 1.9 283 7.8 101020 100
2007-03-30 10:01 51°15.554 2°48.225 3.3 286 7.8 100990 100
2007-03-30 10:02 51°15.405 2°48.018 3 282 7.7 100990 100
2007-03-30 10:03 51°15.257 2°47.814 3.1 278 7.7 101000 100
2007-03-30 10:04 51°15.108 2°47.612 3 280 7.8 101000 100
2007-03-30 10:05 51°14.96 2°47.407 3.5 284 7.8 101000 100
2007-03-30 10:06 51°14.813 2°47.202 2.7 286 7.8 101000 100
2007-03-30 10:07 51°14.665 2°46.997 2.7 282 7.8 100990 100
2007-03-30 10:08 51°14.517 2°46.793 4.1 284 7.8 100990 100
2007-03-30 10:09 51°14.37 2°46.59 3.2 287 7.8 100990 100
2007-03-30 10:10 51°14.222 2°46.387 3.5 282 7.8 100990 100
2007-03-30 10:11 51°14.077 2°46.183 3.8 285 7.8 100990 100
2007-03-30 10:12 51°13.931 2°45.978 2.7 282 7.8 100990 100
2007-03-30 10:13 51°13.786 2°45.771 3.3 286 7.8 100990 100
2007-03-30 10:14 51°13.64 2°45.566 2.4 282 7.8 100990 100
2007-03-30 10:15 51°13.494 2°45.362 2.8 279 7.8 100980 100
2007-03-30 10:16 51°13.349 2°45.16 2.7 279 7.8 101020 100
2007-03-30 10:17 51°13.211 2°44.946 2.2 281 7.9 100990 100
2007-03-30 10:18 51°13.077 2°44.725 2.7 286 7.9 100990 100
2007-03-30 10:19 51°12.94 2°44.506 3.1 281 7.9 100990 100
2007-03-30 10:20 51°12.781 2°44.332 4.2 285 7.9 100990 100
2007-03-30 10:21 51°12.616 2°44.17 3.6 280 7.9 101020 100
2007-03-30 10:22 51°12.449 2°44.006 3.1 285 7.9 100980 100
2007-03-30 10:23 51°12.292 2°43.819 2.5 279 7.9 100990 100
2007-03-30 10:24 51°12.168 2°43.577 0.4 280 7.9 100990 100
2007-03-30 10:25 51°12.073 2°43.299 0.3 8 7.9 100990 100
2007-03-30 10:26 51°11.981 2°43.02 0.1 15 8 101000 100
2007-03-30 10:27 51°11.882 2°42.747 1.6 282 8 100990 100
2007-03-30 10:28 51°11.774 2°42.483 0.9 279 8.1 100990 100
2007-03-30 10:29 51°11.663 2°42.221 0.9 286 8.1 100990 100
2007-03-30 10:30 51°11.553 2°41.959 0.9 286 8.1 101020 100
2007-03-30 10:31 51°11.444 2°41.695 1.1 281 8.1 101020 99
2007-03-30 10:32 51°11.333 2°41.435 0.5 282 8.2 101020 99
2007-03-30 10:33 51°11.224 2°41.173 1 281 8.2 101020 99
2007-03-30 10:34 51°11.113 2°40.913 0.7 282 8.3 101020 99
2007-03-30 10:35 51°11.003 2°40.654 0.4 81 8.3 101020 99
2007-03-30 10:36 51°10.893 2°40.394 0.4 286 8.4 101010 99
2007-03-30 10:37 51°10.782 2°40.135 0.4 282 8.5 101020 99
2007-03-30 10:38 51°10.671 2°39.876 0.2 357 8.5 101010 99
2007-03-30 10:39 51°10.559 2°39.616 0.8 286 8.6 101010 99
2007-03-30 10:40 51°10.432 2°39.371 0.9 286 8.7 101010 99
2007-03-30 10:41 51°10.317 2°39.165 1.1 279 8.7 101010 99
2007-03-30 10:42 51°10.21 2°38.976 1 283 8.7 101020 99
2007-03-30 10:43 51°10.103 2°38.789 1.1 78 8.7 101010 99
2007-03-30 10:44 51°10.011 2°38.615 0.8 80 8.6 101020 99
2007-03-30 10:45 51°9.93 2°38.436 1.7 82 8.6 101010 99
2007-03-30 10:46 51°9.847 2°38.259 1.3 80 8.4 101020 98
2007-03-30 10:47 51°9.777 2°38.105 1.5 77 8.4 101020 98
2007-03-30 10:48 51°9.728 2°38.008 2.3 80 8.6 101020 99
2007-03-30 10:49 51°9.689 2°37.931 2.2 82 8.6 101020 98
2007-03-30 10:50 51°9.652 2°37.861 2.5 80 8.9 101020 98
2007-03-30 10:51 51°9.618 2°37.793 1.7 80 9 101020 98
2007-03-30 10:52 51°9.583 2°37.728 2 73 9.2 101010 98
2007-03-30 10:53 51°9.551 2°37.664 2.7 74 9.4 101010 97
2007-03-30 10:54 51°9.526 2°37.599 3.9 81 9.3 101010 96
2007-03-30 10:55 51°9.518 2°37.554 4.9 45 9 101010 94
2007-03-30 10:56 51°9.522 2°37.521 4.1 38 8.8 101010 95
2007-03-30 10:57 51°9.532 2°37.507 5.5 36 8.6 101010 95
2007-03-30 10:58 51°9.546 2°37.511 6.5 29 8.4 101000 95
2007-03-30 10:59 51°9.56 2°37.524 5.3 29 8.4 101010 95
2007-03-30 11:00 51°9.574 2°37.543 5.2 30 8.3 101010 96
2007-03-30 11:01 51°9.587 2°37.565 6.1 24 8.3 101010 96
2007-03-30 11:02 51°9.597 2°37.589 6.3 23 8.2 101000 96
2007-03-30 11:03 51°9.607 2°37.615 5.5 21 8.2 101000 96
2007-03-30 11:04 51°9.616 2°37.643 5.7 20 8.2 101000 96
2007-03-30 11:05 51°9.625 2°37.67 6.5 15 8.2 101010 96
2007-03-30 11:06 51°9.633 2°37.697 6.7 18 8.2 101000 96
2007-03-30 11:07 51°9.646 2°37.716 6.9 21 8.2 101010 96
2007-03-30 11:08 51°9.669 2°37.624 3.8 37 8.1 101010 97
2007-03-30 11:09 51°9.638 2°37.381 2.1 16 8.1 101010 97
2007-03-30 11:10 51°9.579 2°37.094 2.3 3 8.2 101010 97
2007-03-30 11:11 51°9.517 2°36.796 2.5 5 8.1 101020 97
2007-03-30 11:12 51°9.456 2°36.495 2.4 353 8.1 101010 97
2007-03-30 11:13 51°9.395 2°36.187 2.6 2 8.1 101010 97
2007-03-30 11:14 51°9.336 2°35.889 2.3 3 8.1 101010 97
2007-03-30 11:15 51°9.275 2°35.579 2.5 9 8.1 101010 97
2007-03-30 11:16 51°9.216 2°35.272 2.5 7 8.1 101010 97
2007-03-30 11:17 51°9.156 2°34.96 2.8 5 8.1 101010 97
2007-03-30 11:18 51°9.098 2°34.654 2.7 9 8.1 101020 97
2007-03-30 11:19 51°9.04 2°34.354 2.6 9 8.1 101020 97
2007-03-30 11:20 51°8.989 2°34.088 2.6 27 8.1 101020 97
2007-03-30 11:21 51°8.958 2°33.962 2 80 8.1 101020 97
2007-03-30 11:22 51°8.938 2°33.953 5.4 76 8.2 101020 97
2007-03-30 11:23 51°8.938 2°33.983 4.8 279 8.2 101020 97
2007-03-30 11:24 51°8.939 2°34.016 4.4 285 8.2 101020 97
2007-03-30 11:25 51°8.943 2°34.049 4.2 280 8.2 101020 97
2007-03-30 11:26 51°8.947 2°34.081 4.6 280 8.2 101030 97
2007-03-30 11:27 51°8.952 2°34.113 7 281 8.3 101030 97
2007-03-30 11:28 51°8.956 2°34.144 5.3 279 8.2 101030 97
2007-03-30 11:29 51°8.962 2°34.175 6.3 285 8.2 101020 97
2007-03-30 11:30 51°8.968 2°34.205 7.2 284 8.2 101020 97
2007-03-30 11:31 51°8.974 2°34.236 7.9 281 8.2 101020 97
2007-03-30 11:32 51°8.981 2°34.265 7.3 285 8.2 101020 97
2007-03-30 11:33 51°8.987 2°34.295 6.8 285 8.2 101030 97
2007-03-30 11:34 51°8.993 2°34.324 7 281 8.2 101030 97
2007-03-30 11:35 51°8.998 2°34.353 7.9 280 8.3 101030 97
2007-03-30 11:36 51°9.004 2°34.384 7.2 286 8.3 101020 97
2007-03-30 11:37 51°8.995 2°34.438 6.5 285 8.3 101030 97
2007-03-30 11:38 51°8.988 2°34.486 8.3 278 8.3 101020 97
2007-03-30 11:39 51°8.944 2°34.528 4.1 279 8.3 101030 97
2007-03-30 11:40 51°8.818 2°34.556 5.5 282 8.2 101020 97
2007-03-30 11:41 51°8.664 2°34.558 4.3 279 8.2 101030 97
2007-03-30 11:42 51°8.521 2°34.561 4.6 280 8.3 101030 97
2007-03-30 11:43 51°8.474 2°34.584 7.1 284 8.2 101030 97
2007-03-30 11:44 51°8.479 2°34.592 7 286 8.2 101030 97
2007-03-30 11:45 51°8.484 2°34.6 4.9 281 8.2 101030 97
2007-03-30 11:46 51°8.487 2°34.61 4.8 279 8.2 101030 97
2007-03-30 11:47 51°8.491 2°34.62 6.3 279 8.2 101030 97
2007-03-30 11:48 51°8.495 2°34.631 5 285 8.2 101030 97
2007-03-30 11:49 51°8.497 2°34.643 5.8 282 8.2 101030 97
2007-03-30 11:50 51°8.498 2°34.657 5.7 285 8.2 101030 97
2007-03-30 11:51 51°8.499 2°34.671 5.7 280 8.2 101030 97
2007-03-30 11:52 51°8.499 2°34.687 5.6 279 8.2 101030 97
2007-03-30 11:53 51°8.499 2°34.704 8.6 282 8.2 101030 97
2007-03-30 11:54 51°8.499 2°34.722 7.7 280 8.2 101030 97
2007-03-30 11:55 51°8.499 2°34.738 7.4 280 8.2 101030 97
2007-03-30 11:56 51°8.498 2°34.755 8 287 8.2 101020 97
2007-03-30 11:57 51°8.497 2°34.772 7.7 285 8.2 101030 97
2007-03-30 11:58 51°8.497 2°34.788 8.1 282 8.2 101020 97
2007-03-30 11:59 51°8.496 2°34.805 7.1 279 8.2 101030 97
2007-03-30 12:00 51°8.495 2°34.822 6.6 284 8.3 101020 97
2007-03-30 12:01 51°8.495 2°34.84 7.1 286 8.3 101030 97
2007-03-30 12:02 51°8.494 2°34.858 7.2 279 8.3 101020 97
2007-03-30 12:03 51°8.494 2°34.876 6.9 281 8.3 101030 97
2007-03-30 12:04 51°8.493 2°34.893 8.6 285 8.3 101030 97
2007-03-30 12:05 51°8.492 2°34.91 7.1 284 8.3 101030 97
2007-03-30 12:06 51°8.491 2°34.928 7.5 281 8.3 101030 97
2007-03-30 12:07 51°8.49 2°34.947 6.5 280 8.3 101030 97
2007-03-30 12:08 51°8.497 2°35.019 7.7 284 8.3 101010 97
2007-03-30 12:09 51°8.561 2°35.057 8.2 4 8.3 101010 97
2007-03-30 12:10 51°8.664 2°34.931 8.6 358 8.3 101010 97
2007-03-30 12:11 51°8.778 2°34.798 8.5 360 8.2 101010 97
2007-03-30 12:12 51°8.837 2°34.786 6.9 353 8.2 101020 97
2007-03-30 12:13 51°8.844 2°34.792 6.1 1 8.2 101020 97
2007-03-30 12:14 51°8.848 2°34.8 7.4 10 8.2 101020 98
2007-03-30 12:15 51°8.853 2°34.807 6.9 19 8.2 101020 97
2007-03-30 12:16 51°8.858 2°34.814 6.4 23 8.3 101020 98
2007-03-30 12:17 51°8.864 2°34.819 7 29 8.3 101030 98
2007-03-30 12:18 51°8.869 2°34.822 8.1 28 8.2 101020 98
2007-03-30 12:19 51°8.876 2°34.824 6.6 25 8.3 101020 98
2007-03-30 12:20 51°8.883 2°34.826 7.3 26 8.2 101020 98
2007-03-30 12:21 51°8.891 2°34.827 6.6 22 8.2 101030 98
2007-03-30 12:22 51°8.9 2°34.829 6.9 18 8.3 101040 98
2007-03-30 12:23 51°8.908 2°34.829 7.4 21 8.3 101030 98
2007-03-30 12:24 51°8.918 2°34.826 7.1 23 8.3 101030 98
2007-03-30 12:25 51°8.953 2°34.79 6.5 3 8.3 101030 98
2007-03-30 12:26 51°9.023 2°34.821 8.6 283 8.3 101030 98
2007-03-30 12:27 51°9.029 2°34.943 7.7 286 8.3 101020 98
2007-03-30 12:28 51°8.935 2°35.017 7.8 281 8.4 101040 98
2007-03-30 12:29 51°8.814 2°35.162 7.7 286 8.4 101030 98
2007-03-30 12:30 51°8.69 2°35.315 7.3 286 8.4 101020 98
2007-03-30 12:31 51°8.625 2°35.428 9.1 286 8.4 101030 98
2007-03-30 12:32 51°8.645 2°35.532 9 285 8.4 101030 98
2007-03-30 12:33 51°8.687 2°35.589 8.7 285 8.4 101030 98
2007-03-30 12:34 51°8.739 2°35.655 8.2 283 8.5 101030 98
2007-03-30 12:35 51°8.775 2°35.744 7.9 285 8.4 101030 98
2007-03-30 12:36 51°8.791 2°35.843 8.5 286 8.5 101020 98
2007-03-30 12:37 51°8.801 2°35.927 8 286 8.5 101030 98
2007-03-30 12:38 51°8.813 2°36.006 8.5 285 8.5 101030 98
2007-03-30 12:39 51°8.825 2°36.092 8 280 8.5 101030 98
2007-03-30 12:40 51°8.822 2°36.182 8.7 284 8.5 101020 98
2007-03-30 12:41 51°8.819 2°36.274 8.1 280 8.5 101030 98
2007-03-30 12:42 51°8.815 2°36.366 8.1 279 8.5 101020 98
2007-03-30 12:43 51°8.807 2°36.459 9 308 8.5 101020 98
2007-03-30 12:44 51°8.79 2°36.545 8.2 281 8.5 101020 98
2007-03-30 12:45 51°8.771 2°36.63 7.3 279 8.5 101020 98
2007-03-30 12:46 51°8.751 2°36.714 7.5 280 8.5 101020 98
2007-03-30 12:47 51°8.733 2°36.798 8.5 281 8.5 101020 98
2007-03-30 12:48 51°8.719 2°36.884 8.5 285 8.5 101020 98
2007-03-30 12:49 51°8.706 2°36.972 8.5 283 8.5 101020 98
2007-03-30 12:50 51°8.701 2°37.059 8.3 304 8.6 101020 98
2007-03-30 12:51 51°8.704 2°37.144 9 281 8.5 101020 98
2007-03-30 12:52 51°8.708 2°37.231 7.7 280 8.5 101030 98
2007-03-30 12:53 51°8.719 2°37.318 8.2 285 8.5 101020 98
2007-03-30 12:54 51°8.732 2°37.406 7.9 278 8.5 101020 98
2007-03-30 12:55 51°8.747 2°37.493 8.4 286 8.6 101030 98
2007-03-30 12:56 51°8.763 2°37.578 8.2 284 8.6 101020 98
2007-03-30 12:57 51°8.782 2°37.664 8.3 280 8.6 101020 98
2007-03-30 12:58 51°8.8 2°37.747 7.8 285 8.6 101020 98
2007-03-30 12:59 51°8.818 2°37.831 8.8 285 8.6 101020 98
2007-03-30 13:00 51°8.838 2°37.913 8.6 286 8.7 101020 98
2007-03-30 13:01 51°8.858 2°37.994 7.8 282 8.7 101020 98
2007-03-30 13:02 51°8.879 2°38.074 8 280 8.7 101020 98
2007-03-30 13:03 51°8.901 2°38.154 8.8 284 8.7 101020 97
2007-03-30 13:04 51°8.925 2°38.232 8 284 8.7 101020 97
2007-03-30 13:05 51°8.948 2°38.31 8.6 280 8.7 101030 97
2007-03-30 13:06 51°8.971 2°38.388 8.6 280 8.7 101030 97
2007-03-30 13:07 51°8.994 2°38.465 8.5 284 8.8 101020 97
2007-03-30 13:08 51°9.019 2°38.54 7.8 280 8.8 101030 97
2007-03-30 13:09 51°9.031 2°38.622 7.7 284 8.8 101020 97
2007-03-30 13:10 51°9.018 2°38.7 8.7 286 8.8 101030 97
2007-03-30 13:11 51°8.981 2°38.75 4.2 285 8.8 101030 97
2007-03-30 13:12 51°8.934 2°38.743 5.2 79 8.8 101040 96
2007-03-30 13:13 51°8.896 2°38.728 5.6 73 8.8 101040 96
2007-03-30 13:14 51°8.866 2°38.72 6.4 78 8.8 101040 96
2007-03-30 13:15 51°8.841 2°38.718 5.4 284 8.8 101040 96
2007-03-30 13:16 51°8.822 2°38.716 4.4 284 8.8 101040 96
2007-03-30 13:17 51°8.799 2°38.739 7.1 286 8.8 101040 96
2007-03-30 13:18 51°8.809 2°38.82 8.2 279 8.8 101040 96
2007-03-30 13:19 51°8.906 2°38.901 12.1 278 8.8 101030 96
2007-03-30 13:20 51°9.084 2°39.042 13.3 280 8.8 101030 96
2007-03-30 13:21 51°9.28 2°39.199 13.8 281 8.8 101020 96
2007-03-30 13:22 51°9.479 2°39.358 14.2 284 8.8 101040 96
2007-03-30 13:23 51°9.678 2°39.52 14.2 285 8.8 101040 96
2007-03-30 13:24 51°9.875 2°39.687 13.8 284 8.8 101050 96
2007-03-30 13:25 51°10.071 2°39.861 14.9 281 8.9 101050 96
2007-03-30 13:26 51°10.261 2°40.055 14 281 8.8 101050 96
2007-03-30 13:27 51°10.433 2°40.289 14.2 282 8.8 101060 96
2007-03-30 13:28 51°10.594 2°40.546 14.8 278 8.8 101060 96
2007-03-30 13:29 51°10.72 2°40.848 14.2 282 8.8 101050 96
2007-03-30 13:30 51°10.834 2°41.161 13.9 281 8.8 101040 96
2007-03-30 13:31 51°10.95 2°41.472 13.9 285 8.8 101050 96
2007-03-30 13:32 51°11.065 2°41.787 13.1 287 8.8 101060 96
2007-03-30 13:33 51°11.182 2°42.1 13.5 285 8.8 101050 96
2007-03-30 13:34 51°11.299 2°42.41 14.2 282 8.8 101050 96
2007-03-30 13:35 51°11.391 2°42.735 13.8 282 8.9 101050 96
2007-03-30 13:36 51°11.448 2°43.082 13.8 282 8.9 101050 96
2007-03-30 13:37 51°11.5 2°43.432 13.5 285 8.9 101040 96
2007-03-30 13:38 51°11.547 2°43.781 13.1 280 8.9 101040 96
2007-03-30 13:39 51°11.596 2°44.132 14.2 286 8.9 101040 96
2007-03-30 13:40 51°11.646 2°44.481 13.5 286 8.9 101050 96
2007-03-30 13:41 51°11.696 2°44.83 13.6 279 8.9 101050 96
2007-03-30 13:42 51°11.748 2°45.179 13.1 286 8.9 101050 96
2007-03-30 13:43 51°11.799 2°45.527 13.9 285 8.9 101050 96
2007-03-30 13:44 51°11.85 2°45.874 12.9 278 8.9 101050 96
2007-03-30 13:45 51°11.903 2°46.219 14.1 280 8.9 101050 96
2007-03-30 13:46 51°11.954 2°46.566 13.7 282 8.9 101050 95
2007-03-30 13:47 51°12.011 2°46.911 14.5 283 9 101050 95
2007-03-30 13:48 51°12.084 2°47.25 14.8 281 9 101050 95
2007-03-30 13:49 51°12.156 2°47.588 14.5 282 9 101050 95
2007-03-30 13:50 51°12.233 2°47.919 14.6 285 9 101060 95
2007-03-30 13:51 51°12.332 2°48.238 14.2 278 9 101060 95
2007-03-30 13:52 51°12.432 2°48.555 14 278 9 101060 94
2007-03-30 13:53 51°12.536 2°48.868 13.6 282 9 101060 94
2007-03-30 13:54 51°12.639 2°49.18 13.3 283 9 101060 94
2007-03-30 13:55 51°12.743 2°49.491 12.9 277 9 101070 94
2007-03-30 13:56 51°12.848 2°49.803 13.8 280 9 101060 94
2007-03-30 13:57 51°12.95 2°50.118 14 279 9 101070 94
2007-03-30 13:58 51°13.054 2°50.434 14.1 282 9 101070 94
2007-03-30 13:59 51°13.166 2°50.74 13.6 282 8.9 101070 95
2007-03-30 14:00 51°13.278 2°51.045 13.5 287 8.9 101070 95
2007-03-30 14:01 51°13.39 2°51.348 14.1 281 8.9 101070 95
2007-03-30 14:02 51°13.502 2°51.65 14.2 284 8.9 101070 95
2007-03-30 14:03 51°13.608 2°51.944 13.6 281 8.9 101070 95
2007-03-30 14:04 51°13.709 2°52.218 12.6 279 8.9 101070 95
2007-03-30 14:05 51°13.808 2°52.49 13.5 279 8.9 101070 95
2007-03-30 14:06 51°13.907 2°52.762 14.2 279 8.9 101070 96
2007-03-30 14:07 51°14.007 2°53.034 13.3 287 8.9 101080 96
2007-03-30 14:08 51°14.107 2°53.305 12.7 280 8.9 101070 96
2007-03-30 14:09 51°14.206 2°53.577 12.9 286 8.9 101070 96
2007-03-30 14:10 51°14.301 2°53.849 14.1 278 8.9 101070 96
2007-03-30 14:11 51°14.376 2°54.137 13.3 278 8.9 101080 96
2007-03-30 14:12 51°14.462 2°54.433 13.3 282 8.9 101080 95
2007-03-30 14:13 51°14.444 2°54.751 12.5 281 9 101080 95
2007-03-30 14:14 51°14.361 2°55.051 10.7 278 9 101070 95
2007-03-30 14:15 51°14.237 2°55.309 8.6 282 9 101090 95
2007-03-30 14:16 51°14.11 2°55.43 5.6 279 9 101100 95
2007-03-30 14:17 51°14.031 2°55.481 2.8 285 9 101110 95
2007-03-30 14:18 51°13.975 2°55.521 4.1 281 9.1 101110 95
2007-03-30 14:19 51°13.906 2°55.572 5.8 285 9.1 101110 95
2007-03-30 14:20 51°13.796 2°55.666 5.7 284 9.1 101110 95
2007-03-30 14:21 51°13.697 2°55.813 4.1 284 9.2 101100 95
2007-03-30 14:22 51°13.644 2°55.935 2.4 279 9.3 101110 94
2007-03-30 14:23 51°13.617 2°56.024 3.7 283 9.3 101110 94
2007-03-30 14:24 51°13.604 2°56.084 4.9 281 9.4 101110 94
2007-03-30 14:25 51°13.601 2°56.099 3.4 285 9.5 101110 94